Trail de Goronne 24/07/2016 - 14,6 Km
Place Nom Prénom Temps Vitesse Allure Place. Cat. Cat.
1 SCHMITZ JEROME 584 1:02:11 14,1 4:15 1 S
2 CHARLIER JULIEN 591 1:03:47 13,7 4:22 2 S
3 VANDERSCHAEGHE JÉRÔME 663 1:04:08 13,7 4:23 3 S
4 JOOSTENS JASPER-FREDERIK 562 1:05:37 13,3 4:29 4 S
5 ESTE SEBASTIEN 634 1:06:51 13,1 4:34 5 S
6 LAFOURTE JEROME 543 1:07:49 12,9 4:38 6 S
7 MINY OLIVIER 678 1:08:35 12,8 4:41 7 S
8 BREUER JÉROME 629 1:12:27 12,1 4:57 8 S
9 LAFOURTE ANTHONY 544 1:13:10 12,0 5:00 9 S
10 GRANDJEAN PIERRE 570 1:13:32 11,9 5:02 1 V1
11 LAURENT DAMIEN 551 1:13:59 11,8 5:04 10 S
12 BRUYERE DIDIER 598 1:14:33 11,7 5:06 11 S
13 DELHALLE LAURENT 620 1:15:23 11,6 5:09 2 V1
14 BASTIN THIBAULT 675 1:16:38 11,4 5:14 12 S
15 THIRY MIGUEL 638 1:17:29 11,3 5:18 13 S
16 CRAHAY QUENTIN 676 1:17:35 11,3 5:18 14 S
17 ESTE ROMAIN 635 1:17:44 11,3 5:19 15 S
18 GODELAINE STEPHANE 590 1:18:06 11,2 5:20 16 S
19 HORTEN JEAN PHILIPPE 566 1:18:40 11,1 5:23 17 S
20 VERDIN FRED 617 1:18:42 11,1 5:23 18 S
21 DELHAES DAMIEN 508 1:19:40 11,0 5:27 19 S
22 LEONARD JULIEN 683 1:20:03 10,9 5:29 20 S
23 DEPIERREUX EMILE 641 1:20:19 10,9 5:30 3 V1
24 LEENS PIERRE 671 1:20:42 10,9 5:31 1 V2
25 BURNET KEVIN 505 1:21:11 10,8 5:33 21 S
26 THUNUS EDDY 580 1:21:13 10,8 5:33 4 V1
27 COUGNET CHRISTOPHE 606 1:22:00 10,7 5:37 22 S
28 AERTS PETER 611 1:22:18 10,6 5:38 23 S
29 GUEBELS GEOFFREY 649 1:22:18 10,6 5:38 24 S
30 SERVAIS THIBAUT 642 1:22:33 10,6 5:39 25 S
31 DEVIGNE GREGORY 604 1:22:57 10,6 5:40 26 S
32 DE LEGER WOUT 506 1:23:18 10,5 5:42 27 S
33 DESMARET VINCENT 509 1:23:32 10,5 5:43 28 S
34 SERY BENJAMIN 540 1:23:38 10,5 5:43 29 S
35 GUILLAUME JEAN-MICHEL 661 1:23:49 10,5 5:44 30 S
36 BOES WILLIAM 630 1:24:16 10,4 5:46 1 EG
37 RUCHSKAHL LUKAS 577 1:24:26 10,4 5:47 31 S
38 DEROANNE STEPHANE 548 1:24:26 10,4 5:47 5 V1
39 ABEN FILIP 501 1:24:29 10,4 5:47 32 S
40 WERGIFOSSE JORDAN 646 1:24:32 10,4 5:47 33 S
41 LEMAIRE OLIVIER 588 1:24:44 10,3 5:48 34 S
42 TOMBAL JEAN-CHRISTOPHE 654 1:24:47 10,3 5:48 6 V1
43 LEONARD LAURENT 668 1:24:49 10,3 5:48 7 V1
44 OTTEN YANNIC 619 1:24:52 10,3 5:48 35 S
45 MESOTTEN DIRK 520 1:25:24 10,3 5:50 8 V1
46 VAN NIEUWENHUYSE BERT 541 1:25:48 10,2 5:52 36 S
47 GROGNA ROMARIC 613 1:25:54 10,2 5:53 37 S
48 BASTIN BERNARD 582 1:26:26 10,1 5:55 2 V2
49 WILLEM BERNARD 682 1:26:27 10,1 5:55 38 S
50 RAUW OLIVIER 644 1:26:32 10,1 5:55 3 V2
51 SERVAIS MICHEL 538 1:27:49 10,0 6:00 9 V1
52 STRIGNARD PHILIPPE 623 1:27:51 10,0 6:01 10 V1
53 GUIDOSSE QUENTIN 512 1:28:17 9,9 6:02 39 S
54 WINKIN DIDIER 627 1:28:23 9,9 6:03 4 V2
55 ALVAREZ MARC 625 1:28:45 9,9 6:04 5 V2
56 ALVAREZ REGIS 624 1:28:45 9,9 6:04 40 S
57 ROUXHET QUENTIN 573 1:29:03 9,8 6:06 41 S
58 LINAEN AXEL 581 1:29:04 9,8 6:06 11 V1
59 SERVAIS DANIEL 665 1:29:17 9,8 6:06 6 V2
60 MASSOZ BENOIT 666 1:29:17 9,8 6:06 7 V2
61 WILLEM FREDERIC 686 1:29:17 9,8 6:06 42 S
62 FRANCOIS JORDAN 628 1:29:25 9,8 6:07 43 S
63 ROBINET DANY 528 1:29:25 9,8 6:07 44 S
64 BEAUMONT SONIA 594 1:29:52 9,7 6:09 1 A1
65 PEETERSILLE FREDERIC 595 1:29:52 9,7 6:09 12 V1
66 DESSE XAVIER 673 1:30:07 9,7 6:10 45 S
67 ENDRES SOPHIE 112 1:30:22 9,7 6:11 2 A1
68 BEAUVOIS LAURENT 674 1:31:13 9,6 6:14 46 S
69 THIRION JEAN-FRANCOIS 615 1:32:21 9,5 6:19 8 V2
70 ANGELOV BORIS 586 1:32:28 9,5 6:20 47 S
71 HUMBLET AURELIEN 662 1:32:56 9,4 6:21 48 S
72 BRAWE JEF 552 1:33:01 9,4 6:22 1 V3
73 BEELEN BORIS 503 1:33:15 9,4 6:23 49 S
74 DE HEPCÉE BRUNO 572 1:33:19 9,4 6:23 9 V2
75 GEORGES MICHAEL 618 1:33:25 9,4 6:23 50 S
76 WERGIFOSSE JULIEN 647 1:33:53 9,3 6:25 51 S
77 KEYEUX NICOLAS 616 1:34:25 9,3 6:28 52 S
78 LALLEMANT JONATHAN 516 1:35:00 9,2 6:30 53 S
79 FONTAINE CORALIE 660 1:35:11 9,2 6:31 1 D
80 SERVAIS THOMAS 561 1:35:25 9,2 6:32 54 S
81 LAMBY MICHEL 597 1:35:43 9,2 6:33 13 V1
82 CHAVET MATHIEU 560 1:35:52 9,1 6:33 55 S
83 PIEDBOEUF BERTRAND 652 1:36:29 9,1 6:36 56 S
84 GENICOT PATRICK 643 1:36:30 9,1 6:36 10 V2
85 DEMOL CINDY 656 1:36:35 9,1 6:36 3 A1
86 AZAOUAS KARIM 657 1:36:35 9,1 6:36 57 S
87 LOPES FILIPE 592 1:36:38 9,1 6:37 58 S
88 ETIENNE MICHEL 610 1:37:21 9,0 6:40 14 V1
89 VANESSE HUGUES 531 1:37:27 9,0 6:40 59 S
90 VIDICK FRANCIS 578 1:37:34 9,0 6:40 2 V3
91 VINDEVOGEL MICHAEL 564 1:37:41 9,0 6:41 60 S
92 CARVALHO ALVARO 554 1:37:44 9,0 6:41 61 S
93 RENSONNET STEVE 602 1:37:53 8,9 6:42 62 S
94 LEONARD BERTRAND 601 1:38:03 8,9 6:42 63 S
95 VERHEYDEN JORIS 547 1:38:04 8,9 6:43 15 V1
96 LEMMENS CHRISTOPHE 587 1:38:07 8,9 6:43 16 V1
97 BORREMANS FREDERIC 589 1:38:10 8,9 6:43 64 S
98 BARBETTE BENJAMIN 681 1:38:31 8,9 6:44 65 S
99 DE VRIENDT JEFFRY 579 1:38:44 8,9 6:45 66 S
100 FONTAINE CINDY 605 1:38:50 8,9 6:46 2 D
101 MEDEGHINI BENOIT 645 1:38:54 8,9 6:46 67 S
102 BASTIN PATRICK 546 1:38:59 8,8 6:46 3 V3
103 SAUVAGE RENE 607 1:39:18 8,8 6:48 11 V2
104 HUBERMONT FABIEN 593 1:39:21 8,8 6:48 17 V1
105 LIBION LIONEL 596 1:39:35 8,8 6:49 68 S
106 HORBURG GEOFFREY 574 1:40:04 8,8 6:51 18 V1
107 DOMANGE FABIEN 679 1:40:23 8,7 6:52 19 V1
108 KONEN JEAN LOUIS 609 1:40:25 8,7 6:52 12 V2
109 TOWE DIDIER 575 1:41:37 8,6 6:57 20 V1
110 LONNEUX FERNAND 576 1:41:38 8,6 6:57 21 V1
111 BAX ALEX 612 1:42:05 8,6 6:59 22 V1
112 MICHOTTE VINCENT 685 1:42:10 8,6 6:59 69 S
113 LOCKMAN DENIS 655 1:42:11 8,6 6:59 70 S
114 SALMON TANIA 542 1:42:12 8,6 7:00 3 D
115 SCHMETZ DAVID 559 1:42:21 8,6 7:00 71 S
116 NIZET MARIE 650 1:42:34 8,5 7:01 4 A1
117 MEUNIER JEAN-PIERRE 651 1:42:34 8,5 7:01 23 V1
118 LELOUP ELISE 583 1:42:38 8,5 7:01 1 A2
119 CRAHAY AURELIEN 631 1:42:51 8,5 7:02 2 EG
120 RAUSCH HUGUES 567 1:43:38 8,5 7:05 24 V1
121 LECART VALERIE 669 1:43:44 8,4 7:06 5 A1
122 GIGOT VALERIE 670 1:43:44 8,4 7:06 2 A2
123 THYS ISABELLE 667 1:43:44 8,4 7:06 3 A2
124 LHERMITTE NATACHA 658 1:44:02 8,4 7:07 6 A1
125 DE DOBBELAERE NICOLE 659 1:44:02 8,4 7:07 4 A2
126 ENGELS MARGRET 549 1:44:25 8,4 7:09 7 A1
127 THEATRE JEAN BENOIT 648 1:44:29 8,4 7:09 13 V2
128 BAISE CHARLOTTE 502 1:44:36 8,4 7:09 4 D
129 LEEMANS JEAN FRANCOIS 537 1:45:57 8,3 7:15 25 V1
130 HADNI JULIETTE 539 1:46:03 8,3 7:15 8 A1
131 NIZET FALLONE 550 1:46:19 8,2 7:16 5 D
132 MUSICK BENOIT 603 1:46:22 8,2 7:17 72 S
133 LEONARD MARINA 568 1:46:31 8,2 7:17 9 A1
134 GOOSSE JEAN-PAUL 511 1:47:11 8,2 7:20 4 V3
135 JACQUES THIERRY 513 1:47:11 8,2 7:20 26 V1
136 HURARD GERALD 599 1:47:11 8,2 7:20 73 S
137 SEPULT FABRICE 571 1:47:13 8,2 7:20 27 V1
138 KUPPER ROLAND 621 1:48:16 8,1 7:24 74 S
139 HOUTAIN JEAN-PAUL 622 1:48:16 8,1 7:24 14 V2
140 KAIRIS CECILE 608 1:49:22 8,0 7:29 10 A1
141 NAWARA SOPHIE 522 1:49:32 8,0 7:30 6 D
142 MANDIGERS COR 73 1:50:01 8,0 7:32 15 V2
143 LEFIN VALÉRIE 518 1:50:07 8,0 7:32 11 A1
144 VANDEVILLE NATHALIE 653 1:51:02 7,9 7:36 5 A2
145 LECLERCQ FREDERIC 633 1:51:09 7,9 7:36 28 V1
146 BARBIER ERIKA 680 1:52:15 7,8 7:41 12 A1
147 BOS-BOTTER ELLEN 504 1:52:31 7,8 7:42 6 A2
148 CRAVATTE FREDERIC 677 1:52:34 7,8 7:42 29 V1
149 LALLEMAND PASCAL 515 1:53:39 7,7 7:47 75 S
150 WESTBROEK ROBIN 533 1:56:41 7,5 7:59 3 EG
151 GRANNEMAN RICHARD 534 1:56:41 7,5 7:59 30 V1
152 WESTBROEK JORGEN 532 1:56:41 7,5 7:59 31 V1
153 GILLAIN THIERRY 600 1:58:04 7,4 8:05 16 V2
154 KAZMIERCZAK ERIC 585 1:58:37 7,4 8:07 17 V2
155 VANDEWEYER LUDIVINE 614 1:58:51 7,4 8:08 13 A1
156 DEHART JEAN-MARC 507 1:58:51 7,4 8:08 18 V2
157 VAN MICHELEN WIVINE 684 1:59:33 7,3 8:11 7 D
158 FERA VICTORIA 626 2:00:08 7,3 8:13 8 D
159 PARMENTIER GUY 553 2:00:13 7,3 8:14 19 V2
160 MESLEC NICOLETA 639 2:01:08 7,2 8:17 9 D
161 TODEA RELI 640 2:01:08 7,2 8:17 32 V1
162 BUONAVOGLIA MARYLENE 632 2:02:16 7,2 8:22 14 A1
163 DUVIVIER JULIEN 664 2:02:45 7,1 8:24 76 S
164 PICARD XAVIER 672 2:03:15 7,1 8:26 33 V1
165 BARBETTE ISABELLE 555 2:03:46 7,1 8:28 7 A2
166 BOOMANS ALISIA 563 2:04:30 7,0 8:31 10 D
167 JOOSTENS WILFRIED 545 2:04:30 7,0 8:31 5 V3
168 DOSTER FABIENNE 569 2:06:02 6,9 8:37 15 A1
169 BRASSEUR ROB 139 2:07:15 6,9 8:42 20 V2
170 NIESTE EVELIEN 525 2:07:17 6,9 8:43 11 D
171 VAN DER ZWEEP LISA 529 2:07:17 6,9 8:43 12 D
172 BRONSART AUDREY 565 2:09:12 6,8 8:50 13 D
173 LEFIN NATHALIE 535 2:09:12 6,8 8:50 16 A1
174 BANNEUX BERNADETTE 636 2:11:11 6,7 8:59 1 A3
175 LANGER BENEDICTE 637 2:11:12 6,7 8:59 17 A1
176 DEPIERREUX MYRIAM 556 2:20:49 6,2 9:38 8 A2
177 REMACLE LUC 557 2:20:49 6,2 9:38 34 V1
178 DUCARME JOEL 558 2:26:12 6,0 10:00 6 V3